Find Starlink 31416

NORAD ID: 59355 Int'l Des: 2024-060 Owner: SPXS Country: US Constellation: starlink operational
LEOCIRCULAR

当前视图

正在加载3D地球...

About Starlink 31416

Starlink 31416 (NORAD 59355) is a starlink constellation satellite (v2 mini) launched Mar 31, 2024 by SPXS of US. It operates in LEO, CIRCULAR orbit with a mass of 730.00 kg.

即将过境

Passes for default location (London). Set your location on the main map for personalized predictions.

高度历史

Loading altitude history...

两行轨道根数

1 59355U 24060H 26265.31605440 -.00000285 00000-0 -81378-6 0 9993
2 59355 43.0021 229.4708 0001486 268.3602 91.7079 15.27574916140136
Epoch: Sep 22, 2026 • Age: 19 hours

当前状态

高度 487.0 km
远地点 / 近地点 N/A
速度 7.63 km/s
星下点 42.08°N, 104.02°W
发射日期 Mar 31, 2024
运行时间 2.4 years
类型 internet

技术详情

分类 Payload
质量 730.00 kg
干质量 700.00 kg
长度 0.30 m
跨度 29.00 m
形状 ? Box + pan
制造商 SPXS
平台类型 Starlink V2M
阶段状态 In Orbit
所有者/国家 SPXS/US

Most Searched